TimeCDT,TemperatureF,Dew PointF,Humidity,Sea Level PressureIn,VisibilityMPH,Wind Direction,Wind SpeedMPH,Gust SpeedMPH,PrecipitationIn,Events,Conditions,WindDirDegrees,DateUTC
12:15 AM,65.8,64.4,95,29.83,5.0,West,3.5,-,N/A,,Mostly Cloudy,270,2013-07-10 05:15:00
12:35 AM,66.2,64.8,95,29.83,7.0,West,4.6,-,N/A,,Scattered Clouds,270,2013-07-10 05:35:00
12:55 AM,66.2,64.8,95,29.84,10.0,WNW,8.1,-,N/A,,Scattered Clouds,290,2013-07-10 05:55:00
1:15 AM,66.2,63.7,92,29.84,10.0,WNW,9.2,17.3,N/A,,Mostly Cloudy,300,2013-07-10 06:15:00
1:35 AM,65.7,62.2,89,29.85,10.0,WNW,11.5,18.4,N/A,,Mostly Cloudy,290,2013-07-10 06:35:00
1:55 AM,64.0,60.1,87,29.85,10.0,WNW,9.2,-,N/A,,Scattered Clouds,300,2013-07-10 06:55:00
2:15 AM,63.5,59.5,87,29.86,10.0,NW,9.2,16.1,N/A,,Scattered Clouds,310,2013-07-10 07:15:00
2:55 AM,61.5,57.6,87,29.88,10.0,West,5.8,-,N/A,,Scattered Clouds,280,2013-07-10 07:55:00
3:15 AM,60.8,57.0,87,29.88,10.0,WNW,6.9,-,N/A,,Clear,290,2013-07-10 08:15:00
3:35 AM,59.7,55.9,87,29.88,10.0,WNW,4.6,-,N/A,,Scattered Clouds,290,2013-07-10 08:35:00
3:55 AM,59.4,55.6,87,29.88,10.0,WNW,6.9,-,N/A,,Scattered Clouds,300,2013-07-10 08:55:00
4:15 AM,59.0,54.5,85,29.90,10.0,WNW,8.1,-,N/A,,Clear,290,2013-07-10 09:15:00
4:35 AM,58.1,54.3,87,29.90,10.0,West,6.9,-,N/A,,Clear,280,2013-07-10 09:35:00
4:55 AM,57.6,54.3,89,29.90,10.0,West,6.9,-,N/A,,Scattered Clouds,280,2013-07-10 09:55:00
5:15 AM,57.7,54.7,90,29.90,10.0,West,6.9,-,N/A,,Mostly Cloudy,280,2013-07-10 10:15:00
5:35 AM,57.4,54.7,91,29.91,10.0,West,5.8,-,N/A,,Scattered Clouds,280,2013-07-10 10:35:00
5:55 AM,57.7,55.4,92,29.92,10.0,West,8.1,-,N/A,,Scattered Clouds,280,2013-07-10 10:55:00
6:15 AM,58.3,55.4,90,29.92,10.0,WNW,6.9,-,N/A,,Scattered Clouds,290,2013-07-10 11:15:00
6:35 AM,59.0,55.2,87,29.92,10.0,WNW,10.4,-,N/A,,Clear,290,2013-07-10 11:35:00
6:55 AM,59.2,55.0,86,29.93,10.0,WNW,6.9,-,N/A,,Scattered Clouds,290,2013-07-10 11:55:00
7:15 AM,59.5,54.9,84,29.93,10.0,WNW,9.2,-,N/A,,Scattered Clouds,290,2013-07-10 12:15:00
7:35 AM,60.1,55.0,83,29.94,10.0,WNW,10.4,16.1,N/A,,Mostly Cloudy,290,2013-07-10 12:35:00
7:55 AM,60.8,54.7,80,29.94,10.0,NW,9.2,18.4,N/A,,Mostly Cloudy,310,2013-07-10 12:55:00
8:15 AM,61.9,54.1,76,29.95,10.0,NW,13.8,18.4,N/A,,Scattered Clouds,310,2013-07-10 13:15:00
8:35 AM,62.2,54.0,74,29.95,10.0,NW,11.5,19.6,N/A,,Mostly Cloudy,320,2013-07-10 13:35:00
8:55 AM,62.2,52.9,71,29.96,10.0,NW,15.0,20.7,N/A,,Scattered Clouds,310,2013-07-10 13:55:00
9:15 AM,63.5,52.9,68,29.96,10.0,NW,11.5,23.0,N/A,,Scattered Clouds,320,2013-07-10 14:15:00
9:35 AM,63.5,52.5,67,29.96,10.0,NW,12.7,20.7,N/A,,Mostly Cloudy,310,2013-07-10 14:35:00
9:55 AM,65.3,52.9,64,29.96,10.0,NW,13.8,20.7,N/A,,Mostly Cloudy,320,2013-07-10 14:55:00
10:35 AM,65.8,52.5,62,29.97,10.0,WNW,15.0,-,N/A,,Mostly Cloudy,300,2013-07-10 15:35:00
10:55 AM,65.5,52.2,62,29.97,10.0,NW,10.4,20.7,N/A,,Overcast,310,2013-07-10 15:55:00
11:55 AM,68.0,52.0,56,29.98,10.0,NW,10.4,17.3,N/A,,Mostly Cloudy,310,2013-07-10 16:55:00
12:35 PM,68.5,52.7,57,29.98,10.0,NW,10.4,17.3,N/A,,Mostly Cloudy,310,2013-07-10 17:35:00
12:55 PM,68.9,52.3,55,29.99,10.0,NNW,9.2,17.3,N/A,,Mostly Cloudy,330,2013-07-10 17:55:00
1:55 PM,69.8,51.8,53,29.98,10.0,NW,10.4,19.6,N/A,,Mostly Cloudy,320,2013-07-10 18:55:00
3:15 PM,70.7,49.6,47,29.99,10.0,NW,13.8,24.2,N/A,,Mostly Cloudy,310,2013-07-10 20:15:00
4:15 PM,71.1,49.5,46,29.99,10.0,NNW,15.0,20.7,N/A,,Mostly Cloudy,330,2013-07-10 21:15:00
4:55 PM,71.4,51.6,50,29.99,10.0,NW,6.9,-,N/A,,Mostly Cloudy,320,2013-07-10 21:55:00
5:35 PM,70.5,50.7,49,29.99,10.0,WNW,8.1,-,N/A,,Overcast,300,2013-07-10 22:35:00
5:55 PM,68.5,51.3,54,30.00,10.0,NNW,3.5,-,N/A,,Mostly Cloudy,330,2013-07-10 22:55:00
6:15 PM,70.0,51.8,52,30.00,10.0,NNW,5.8,-,N/A,,Scattered Clouds,340,2013-07-10 23:15:00
6:35 PM,69.3,52.0,54,30.00,10.0,NW,3.5,-,N/A,,Scattered Clouds,320,2013-07-10 23:35:00
6:55 PM,70.0,51.3,51,30.00,10.0,NW,6.9,-,N/A,,Mostly Cloudy,310,2013-07-10 23:55:00
7:15 PM,69.3,51.6,53,30.01,10.0,NW,4.6,-,N/A,,Scattered Clouds,310,2013-07-11 00:15:00
7:35 PM,68.4,51.4,55,30.01,10.0,NW,3.5,-,N/A,,Scattered Clouds,310,2013-07-11 00:35:00
7:55 PM,67.1,53.4,61,30.01,10.0,Calm,Calm,-,N/A,,Clear,0,2013-07-11 00:55:00
8:15 PM,64.8,55.6,72,30.01,10.0,Calm,Calm,-,N/A,,Clear,0,2013-07-11 01:15:00
8:35 PM,61.3,55.8,82,30.02,10.0,Calm,Calm,-,N/A,,Clear,0,2013-07-11 01:35:00
8:55 PM,59.0,55.0,87,30.02,10.0,Calm,Calm,-,N/A,,Clear,0,2013-07-11 01:55:00
9:15 PM,57.4,54.5,90,30.02,10.0,Calm,Calm,-,N/A,,Clear,0,2013-07-11 02:15:00
9:35 PM,56.7,54.1,91,30.03,10.0,Calm,Calm,-,N/A,,Clear,0,2013-07-11 02:35:00
9:55 PM,55.6,53.6,93,30.03,10.0,Calm,Calm,-,N/A,,Clear,0,2013-07-11 02:55:00
10:15 PM,55.2,53.1,92,30.03,10.0,Calm,Calm,-,N/A,,Clear,0,2013-07-11 03:15:00
10:35 PM,53.8,52.0,94,30.03,7.0,Calm,Calm,-,N/A,,Clear,0,2013-07-11 03:35:00
10:55 PM,52.3,50.9,95,30.04,5.0,Calm,Calm,-,N/A,,Clear,0,2013-07-11 03:55:00
11:15 PM,52.9,51.4,95,30.04,7.0,Calm,Calm,-,N/A,,Clear,0,2013-07-11 04:15:00
11:35 PM,51.6,50.0,94,30.05,3.0,Calm,Calm,-,N/A,,Clear,0,2013-07-11 04:35:00
11:55 PM,51.1,50.0,96,30.05,7.0,Calm,Calm,-,N/A,,Clear,0,2013-07-11 04:55:00